Location: Julian California
(33.0790°N, 116.6010°W)
Time: 20:01:12
(UTC-07:00)

USA 215 - Pass Details

Date: 14 June 2018
Orbit: 1100 x 1107 km, 123.0° (Epoch: 15 October)

Event Time Altitude Azimuth Distance (km) Brightness Sun altitude
Exits shadow 21:18:00 11° 171° (S) 2,890 5.0 -14.8°
Maximum altitude 21:23:42 36° 234° (SW) 1,673 4.3 -15.7°
Drops below altitude 10° 21:29:35 10° 299° (WNW) 2,954 6.7 -16.6°
Sets 21:32:19 0° 308° (NW) 3,915 7.9 -17.0°
